| time (UTC) | temp F | wind direction | speed knots | gust knots | rain 1hr in | rain 24hr in | rain mn in | humidity % | barometer mb |
| 20260507013053 | 45 | 63 | 1.7 | 7.8 | 0.00 | 0.65 | 0.00 | 90 | 1009.9 |
| 20260507011551 | 45 | 14 | 3.5 | 8.7 | 0.00 | 0.65 | 0.00 | 89 | 1010.0 |
| 20260507010049 | 45 | 56 | 1.7 | 7.8 | 0.00 | 0.65 | 0.00 | 89 | 1009.8 |
| 20260507004548 | 45 | 2 | 1.7 | 5.2 | 0.00 | 0.70 | 0.00 | 89 | 1009.7 |
| 20260507003046 | 45 | 359 | 0.9 | 7.8 | 0.00 | 0.70 | 0.00 | 89 | 1009.5 |
| 20260507001607 | 45 | 94 | 3.5 | 12.2 | 0.00 | 0.70 | 0.00 | 89 | 1009.3 |
| 20260507000043 | 46 | 51 | 1.7 | 9.6 | 0.00 | 0.70 | 0.00 | 90 | 1009.3 |
| 20260506234536 | 46 | 59 | 2.6 | 7.8 | 0.00 | 0.72 | 0.00 | 89 | 1009.2 |
| 20260506233033 | 47 | 343 | 1.7 | 8.7 | 0.00 | 0.72 | 0.00 | 88 | 1009.1 |
| 20260506231529 | 48 | 320 | 1.7 | 9.6 | 0.00 | 0.72 | 0.00 | 88 | 1009.1 |
| 20260506230043 | 49 | 37 | 2.6 | 9.6 | 0.00 | 0.72 | 0.00 | 88 | 1009.1 |
| 20260506224523 | 49 | 57 | 3.5 | 9.6 | 0.00 | 0.72 | 0.00 | 87 | 1009.0 |
| 20260506223027 | 50 | 50 | 1.7 | 7.8 | 0.00 | 0.72 | 0.00 | 87 | 1008.7 |
| 20260506221518 | 50 | 348 | 1.7 | 6.1 | 0.00 | 0.72 | 0.00 | 88 | 1008.6 |
| 20260506220015 | 50 | 2 | 0.0 | 5.2 | 0.00 | 0.72 | 0.00 | 87 | 1008.5 |
| 20260506214513 | 50 | 76 | 0.9 | 4.3 | 0.00 | 0.72 | 0.72 | 88 | 1008.5 |
| 20260506213011 | 50 | 60 | 0.9 | 7.8 | 0.00 | 0.72 | 0.72 | 88 | 1008.5 |
| 20260506211509 | 50 | 350 | 0.9 | 4.3 | 0.00 | 0.72 | 0.72 | 88 | 1008.5 |
| 20260506210009 | 50 | 30 | 1.7 | 5.2 | 0.00 | 0.72 | 0.72 | 88 | 1008.4 |
| 20260506204505 | 50 | 65 | 2.6 | 7.0 | 0.00 | 0.72 | 0.72 | 88 | 1008.3 |
| 20260506203002 | 51 | 49 | 1.7 | 7.8 | 0.00 | 0.72 | 0.72 | 88 | 1008.1 |
| 20260506201701 | 51 | 40 | 2.6 | 9.6 | 0.00 | 0.72 | 0.72 | 89 | 1008.1 |
| 20260506194601 | 51 | 54 | 2.6 | 5.2 | 0.00 | 0.72 | 0.72 | 89 | 1008.1 |
| 20260506193022 | 51 | 66 | 1.7 | 7.0 | 0.00 | 0.72 | 0.72 | 90 | 1007.9 |
| 20260506191512 | 51 | 76 | 1.7 | 7.0 | 0.00 | 0.72 | 0.72 | 90 | 1007.8 |
| 20260506190013 | 51 | 344 | 0.9 | 5.2 | 0.00 | 0.72 | 0.72 | 90 | 1007.7 |
| 20260506184509 | 51 | 69 | 2.6 | 7.0 | 0.00 | 0.72 | 0.72 | 89 | 1007.5 |
| 20260506183007 | 52 | 344 | 1.7 | 7.0 | 0.00 | 0.72 | 0.72 | 90 | 1007.4 |
| 20260506181507 | 52 | 60 | 2.6 | 7.0 | 0.00 | 0.72 | 0.72 | 89 | 1007.2 |
| 20260506180009 | 53 | 81 | 0.9 | 5.2 | 0.00 | 0.72 | 0.72 | 90 | 1007.1 |
| 20260506174504 | 53 | 27 | 0.9 | 4.3 | 0.00 | 0.72 | 0.72 | 89 | 1006.9 |
| 20260506173005 | 53 | 57 | 1.7 | 5.2 | 0.00 | 0.72 | 0.72 | 89 | 1006.8 |
| 20260506171504 | 54 | 348 | 1.7 | 5.2 | 0.00 | 0.72 | 0.72 | 89 | 1006.7 |
| 20260506170004 | 54 | 350 | 0.9 | 7.8 | 0.00 | 0.72 | 0.72 | 89 | 1006.6 |
| 20260506164511 | 54 | 357 | 1.7 | 7.0 | 0.00 | 0.72 | 0.72 | 89 | 1006.7 |
| 20260506163006 | 54 | 342 | 0.9 | 4.3 | 0.00 | 0.72 | 0.72 | 89 | 1006.6 |
| 20260506160050 | 55 | 34 | 0.9 | 6.1 | 0.00 | 0.72 | 0.72 | 90 | 1006.7 |
| 20260506154543 | 55 | 72 | 1.7 | 5.2 | 0.00 | 0.72 | 0.72 | 89 | 1007.0 |
| 20260506153041 | 55 | 358 | 1.7 | 7.0 | 0.00 | 0.72 | 0.72 | 90 | 1006.9 |
| 20260506151541 | 54 | 38 | 0.9 | 3.5 | 0.00 | 0.72 | 0.72 | 92 | 1007.0 |
| 20260506150048 | 54 | 54 | 0.9 | 7.8 | 0.00 | 0.72 | 0.72 | 92 | 1006.8 |
| 20260506144540 | 54 | 325 | 1.7 | 6.1 | 0.00 | 0.72 | 0.72 | 92 | 1006.8 |
| 20260506143040 | 54 | 86 | 0.9 | 4.3 | 0.00 | 0.72 | 0.72 | 92 | 1006.8 |
| 20260506141636 | 55 | 59 | 1.7 | 7.8 | 0.00 | 0.72 | 0.72 | 91 | 1006.7 |
| 20260506140036 | 54 | 292 | 2.6 | 6.1 | 0.00 | 0.72 | 0.72 | 93 | 1006.7 |
| 20260506134535 | 53 | 325 | 2.6 | 7.0 | 0.00 | 0.72 | 0.72 | 94 | 1006.8 |
| 20260506133040 | 53 | 356 | 1.7 | 6.1 | 0.00 | 0.72 | 0.72 | 94 | 1006.7 |
| 20260506131536 | 54 | 348 | 0.9 | 3.5 | 0.00 | 0.72 | 0.72 | 95 | 1006.7 |
| 20260506130033 | 53 | 36 | 0.0 | 4.3 | 0.00 | 0.72 | 0.72 | 96 | 1006.5 |
| 20260506124532 | 53 | 339 | 0.0 | 2.6 | 0.00 | 0.72 | 0.72 | 96 | 1006.6 |
| 20260506123032 | 53 | 86 | 1.7 | 4.3 | 0.00 | 0.72 | 0.72 | 95 | 1006.6 |
| 20260506121531 | 53 | 354 | 0.9 | 3.5 | 0.00 | 0.72 | 0.72 | 95 | 1006.6 |
| 20260506120049 | 54 | 61 | 0.9 | 3.5 | 0.00 | 0.72 | 0.72 | 95 | 1006.5 |
| 20260506114632 | 53 | 42 | 0.0 | 3.5 | 0.00 | 0.72 | 0.72 | 96 | 1006.5 |
| 20260506113029 | 53 | 5 | 1.7 | 4.3 | 0.00 | 0.72 | 0.72 | 96 | 1006.3 |
| 20260506111529 | 53 | 55 | 1.7 | 5.2 | 0.00 | 0.72 | 0.72 | 97 | 1005.9 |
| 20260506110030 | 53 | 9 | 3.5 | 9.6 | 0.00 | 0.72 | 0.72 | 97 | 1006.0 |
| 20260506104537 | 53 | 76 | 0.9 | 6.1 | 0.00 | 0.72 | 0.72 | 98 | 1005.9 |
| 20260506103038 | 52 | 22 | 0.9 | 8.7 | 0.01 | 0.72 | 0.72 | 98 | 1005.8 |
| 20260506101527 | 52 | 336 | 3.5 | 8.7 | 0.02 | 0.72 | 0.72 | 98 | 1005.6 |
| 20260506100024 | 52 | 2 | 1.7 | 13.0 | 0.02 | 0.72 | 0.72 | 98 | 1005.6 |
| 20260506094523 | 53 | 337 | 1.7 | 6.1 | 0.03 | 0.72 | 0.72 | 98 | 1005.4 |
| 20260506093022 | 52 | 53 | 0.9 | 5.2 | 0.02 | 0.72 | 0.72 | 98 | 1005.2 |
| 20260506091519 | 51 | 19 | 1.7 | 7.0 | 0.02 | 0.71 | 0.71 | 98 | 1005.1 |
| 20260506090016 | 51 | 317 | 2.6 | 5.2 | 0.02 | 0.70 | 0.70 | 98 | 1005.1 |
| 20260506084530 | 52 | 345 | 0.9 | 6.1 | 0.04 | 0.69 | 0.69 | 98 | 1004.9 |
| 20260506083013 | 52 | 301 | 0.0 | 4.3 | 0.06 | 0.69 | 0.69 | 98 | 1004.8 |
| 20260506081511 | 52 | 342 | 0.0 | 5.2 | 0.08 | 0.69 | 0.69 | 98 | 1004.6 |
| 20260506073008 | 51 | 352 | 0.0 | 3.5 | 0.16 | 0.63 | 0.63 | 98 | 1004.4 |
| 20260506071507 | 51 | 345 | 0.9 | 6.1 | 0.15 | 0.61 | 0.61 | 98 | 1004.3 |
| 20260506061518 | 51 | 17 | 0.9 | 4.3 | 0.06 | 0.46 | 0.46 | 97 | 1004.2 |
| 20260506044506 | 52 | 35 | 2.6 | 7.8 | 0.04 | 0.39 | 0.38 | 97 | 1004.2 |
| 20260506043005 | 52 | 342 | 1.7 | 7.0 | 0.05 | 0.37 | 0.36 | 97 | 1004.3 |
| 20260506041503 | 52 | 52 | 0.0 | 3.5 | 0.06 | 0.36 | 0.35 | 97 | 1004.4 |
| 20260506040001 | 52 | 12 | 0.9 | 3.5 | 0.06 | 0.35 | 0.35 | 97 | 1004.6 |
| 20260506034600 | 52 | 76 | 0.9 | 4.3 | 0.07 | 0.35 | 0.34 | 97 | 1004.7 |
| 20260506033100 | 52 | 76 | 0.9 | 2.6 | 0.07 | 0.32 | 0.31 | 97 | 1004.8 |
| 20260506031556 | 52 | 95 | 0.0 | 3.5 | 0.09 | 0.31 | 0.30 | 96 | 1004.9 |
| 20260506030054 | 52 | 338 | 1.7 | 6.1 | 0.09 | 0.28 | 0.28 | 96 | 1005.1 |
| 20260506024551 | 52 | 71 | 0.0 | 4.3 | 0.10 | 0.28 | 0.27 | 96 | 1005.2 |
| 20260506023102 | 52 | 33 | 0.9 | 4.3 | 0.10 | 0.25 | 0.24 | 96 | 1005.4 |
| 20260506021608 | 53 | 28 | 0.0 | 2.6 | 0.09 | 0.22 | 0.21 | 96 | 1005.5 |
| 20260506020046 | 53 | 13 | 0.9 | 3.5 | 0.11 | 0.20 | 0.19 | 96 | 1005.6 |
| 20260506014544 | 53 | 322 | 0.9 | 3.5 | 0.11 | 0.17 | 0.17 | 96 | 1005.7 |